This demonstration page uses our WeatherBlox Daily Observations layout. Learn more.

38.88101, -77.10428

Hourly Observations for November 10, 2019

Temp ( °F °C ) Dew Point ( °F °C ) Humidity (%) Winds ( mph kmh ) Pressure ( in mb ) Visibility ( mi km ) Precip ( " mm )
12:52 am 00:52 Cloudy 37 2.8 31 -0.6 79 79 WSW 3 6 30.16 1021 10 16.0934 0 0
1:52 am 01:52 Cloudy 37 2.8 32 0 82 82 SW 3 6 30.14 1021 10 16.0934 0 0
2:52 am 02:52 Cloudy 37 2.8 32 0 82 82 SSW 5 7 30.12 1020 10 16.0934 0 0
3:52 am 03:52 Clear 39 3.9 32 0 76 76 SSW 9 15 30.11 1020 10 16.0934 0 0
4:52 am 04:52 Cloudy 40 4.4 30 -1.1 68 68 SSW 7 11 30.12 1020 10 16.0934 0 0
5:52 am 05:52 Cloudy 40 4.4 31 -0.6 70 70 S 8 13 30.1 1019 10 16.0934 0 0
6:52 am 06:52 Mostly Cloudy 40 4.4 29 -1.7 65 65 SSW 9 15 30.11 1020 10 16.0934 0 0
7:52 am 07:52 Mostly Cloudy 41 5 30 -1.1 65 65 SSW 8 13 30.13 1020 10 16.0934 0 0
8:52 am 08:52 Mostly Cloudy 43 6.1 31 -0.6 63 63 S 7 11 30.12 1020 10 16.0934 0 0
9:52 am 09:52 Partly Cloudy 47 8.3 34 1.1 61 61 S 9 15 30.11 1020 10 16.0934 0 0
10:52 am 10:52 Partly Cloudy 49 9.4 33 0.6 55 55 SSE 9 15 30.1 1019 10 16.0934 0 0
11:52 am 11:52 Mostly Cloudy 52 11.1 34 1.1 50 50 S 10 17 30.07 1018 10 16.0934 0 0
12:52 pm 12:52 Mostly Cloudy 53 11.7 36 2.2 52 52 S 13 20 30.05 1018 10 16.0934 0 0
1:52 pm 13:52 Cloudy 55 12.8 35 1.7 47 47 S 8 13 30.05 1018 10 16.0934 0 0
2:52 pm 14:52 Cloudy 55 12.8 37 2.8 51 51 SSE 5 7 30.04 1017 10 16.0934 0 0
3:52 pm 15:52 Mostly Cloudy 55 12.8 37 2.8 51 51 S 5 7 30.04 1017 10 16.0934 0 0
4:52 pm 16:52 Mostly Cloudy 53 11.7 39 3.9 59 59 SSE 5 7 30.04 1017 10 16.0934 0 0
5:52 pm 17:52 Mostly Cloudy 53 11.7 36 2.2 52 52 SSW 6 9 30.04 1017 10 16.0934 0 0
6:52 pm 18:52 Mostly Cloudy 51 10.6 36 2.2 56 56 SW 3 6 30.05 1018 10 16.0934 0 0
7:52 pm 19:52 Mostly Cloudy 50 10 43 6.1 77 77 Calm 30.06 1018 10 16.0934 0 0
8:52 pm 20:52 Mostly Cloudy 49 9.4 41 5 74 74 Calm 30.05 1018 10 16.0934 0 0
9:52 pm 21:52 Mostly Cloudy 48 8.9 39 3.9 71 71 SSW 3 6 30.04 1017 10 16.0934 0 0
10:52 pm 22:52 Partly Cloudy 48 8.9 39 3.9 71 71 Calm 30.04 1017 10 16.0934 0 0
11:52 pm 23:52 Partly Cloudy 47 8.3 43 6.1 86 86 Calm 30.05 1018 10 16.0934 0 0

Powered by AerisWeather